Flag for U.S.A. Weather past 2 weeks in Nashville, Tennessee, U.S.A.

Now
32 °F

Light rain. Ice fog.


Feels Like: 21 °F
Forecast: 18 / 31 °F
Wind: 17 mph from North

Location: Nashville International Airport

Current Time: Mar 4, 2015 at 10:07:45 PM

Latest Report: Mar 4, 2015 at 8:53 PM


Visibility: 8 mi

Pressure: 30.12 "Hg

Humidity: 92%

Dew point: 30 °F

Location of NashvilleLocation

Historic Weather in Nashville — Graph

°F

Nashville temperature yesterday

Maximum temperature yesterday: 64 °F (at 3:53 PM)
Minimum temperature yesterday: 43 °F (at 1:53 AM)
Average temperature yesterday: 56 °F

Past Weeks' High & Low Weather Summary

 TemperatureHumidityPressure
High65 °F (Mar 4, 12:53 AM)100% (Feb 21, 11:58 AM)30.64 "Hg (Feb 21, 11:58 AM)
Low6 °F (Feb 19, 4:53 AM)36% (Feb 24, 2:53 PM)29.81 "Hg (Feb 25, 5:53 PM)
Average33 °F70%30.23 "Hg
* Reported Feb 17 7:53 PM — Mar 4 7:53 PM, Nashville, Weather by CustomWeather, © 2015

Note: Actual official high and low records may vary slightly from our data, if they occured in-between our weather recording intervals... More about our weather records

Advertising

Nashville weather history for previous 24 hours

 ConditionsComfort  
Time TempWeatherWind HumidityBarometerVisibility
7:53 PM
Wed, Mar 4
33 °FDrizzle. Mostly cloudy.13 mph92%30.10 "Hg8 mi
6:53 PM34 °FLight rain. Mostly cloudy.15 mph88%30.09 "Hg8 mi
5:53 PM35 °FRain. Fog.13 mph92%30.09 "Hg3 mi
4:53 PM37 °FRain. Fog.15 mph93%30.04 "Hg1 mi
3:53 PM37 °FHeavy rain. Fog.13 mph96%29.97 "Hg1 mi
2:53 PM39 °FHeavy rain. Fog.10 mph93%29.96 "Hg1 mi
1:53 PM43 °FRain. Fog.16 mph93%29.90 "Hg1 mi
12:58 PM45 °FHeavy rain. Fog.14 mph93%29.93 "Hg1 mi
11:53 AM47 °FLow clouds.12 mph93%29.93 "Hg7 mi
10:53 AM50 °FLight rain. Fog.14 mph93%29.94 "Hg4 mi
9:53 AM52 °FLight rain. Fog.3 mph97%29.93 "Hg1 mi
8:53 AM51 °FRain. Fog.8 mph96%29.92 "Hg1 mi
7:53 AM51 °FLight rain. Fog.3 mph96%29.90 "Hg1 mi
6:53 AM51 °FRain. Fog.7 mph96%29.90 "Hg1 mi
5:53 AM51 °FRain. Fog.7 mph96%29.89 "Hg2 mi
5:04 AM52 °FHeavy rain. Fog.14 mph94%29.90 "Hg2 mi
4:56 AM52 °FLight rain. Fog.13 mph94%29.89 "Hg6 mi
3:53 AM64 °FMostly cloudy.8 mph94%29.83 "Hg10 mi
2:53 AM64 °FPartly cloudy.9 mph90%29.83 "Hg10 mi
1:53 AM64 °FPassing clouds.12 mph90%29.84 "Hg10 mi
12:53 AM65 °FMostly cloudy.9 mph91%29.86 "Hg10 mi
11:53 PM
Tue, Mar 3
64 °FMostly cloudy.8 mph94%29.86 "Hg10 mi
11:02 PM63 °FLight rain. Fog.10 mph100%29.87 "Hg5 mi
10:57 PM63 °FRain. Fog.10 mph100%29.87 "Hg2 mi
10:02 PM63 °FOvercast.10 mph94%29.90 "Hg10 mi
Weather by CustomWeather, © 2015

See weather overviewHow to use our weather pages